Powrót do katalogu

COSMOS 2565

AktywnyNawigacjaLEO
NORAD 54381·PAYLOAD·🇷🇺 Russia

Wystrzelony Nov 30, 2022 z Plesetsk Cosmodrome

Loading…

Następne Przeloty (najbliższe 24 godziny)

TLE

ŚwieżeSource: Space-Track

Epoka: Sep 14, 2026, 14:12 UTC

1 54381U 22163A   26257.59230896 -.00000061  00000-0  10454-4 0  9995
2 54381  67.1470 249.9592 0006718 266.7529  93.2787 13.96674964193258

Śledź COSMOS 2565 w czasie rzeczywistym z AllMySat

Download on the App Store